Theta_e
316 314 316 317 312 312 313 315 315 313 314 312 310 309 308 302 301 301 299 298 297 297 296 295 295 295 294 295 296 296 295 296 296 299 303 304 303 302 305 310 311 322 322 322
318 320 314 311 312 314 314 313 311 312 313 310 308 308 306 301 298 299 298 297 297 296 295 295 294 294 294 294 294 296 295 294 295 297 300 302 302 300 301 307 310 308 321 322
315 316 309 312 314 313 312 310 312 311 310 309 308 308 306 300 298 298 298 297 296 295 295 295 294 293 293 293 294 294 294 294 294 295 297 298 301 300 300 299 302 306 307 321
309 309 312 313 312 310 311 308 308 308 309 308 307 307 308 302 301 298 298 297 296 295 295 294 294 293 293 293 293 293 294 293 293 294 295 296 297 301 299 299 299 302 305 307
311 307 309 309 310 309 310 304 306 307 308 307 307 307 309 307 306 298 297 295 294 294 294 293 293 293 293 293 293 293 293 293 293 294 294 294 296 298 300 299 299 300 304 305
308 308 309 311 309 306 303 306 305 306 306 308 308 305 307 306 301 297 296 295 294 294 293 293 292 292 293 293 293 293 293 292 293 293 293 294 294 295 298 299 299 299 302 305
311 310 308 305 308 307 305 305 306 312 314 314 304 302 303 299 296 296 295 294 293 293 293 293 294 293 293 292 292 292 292 291 291 291 292 293 293 294 295 298 298 298 298 298
311 312 309 305 306 306 304 303 304 306 309 308 303 301 303 299 296 296 295 293 293 292 293 293 293 292 292 291 290 289 287 289 289 290 291 292 292 294 294 297 298 298 298 298
309 307 303 299 301 302 306 304 302 302 303 300 303 302 299 298 296 296 294 293 292 292 292 293 292 291 290 290 288 286 283 282 282 282 283 284 288 293 293 295 297 297 297 297
307 306 305 298 298 297 299 300 300 299 301 304 304 302 301 297 296 294 293 292 292 292 292 292 291 290 290 287 284 282 280 279 278 278 280 281 283 286 287 294 296 297 296 296
303 302 302 299 299 301 297 297 295 296 298 298 300 302 297 295 295 293 292 292 292 292 292 291 290 290 287 284 282 280 279 278 278 278 279 280 281 282 284 287 295 296 296 296
300 301 301 301 296 294 294 296 296 296 298 295 296 297 297 296 295 293 292 291 292 292 291 290 290 288 285 283 281 279 278 277 277 277 277 278 279 280 283 285 288 294 296 296
297 299 300 301 295 293 294 294 295 296 294 297 297 297 296 295 296 293 291 291 292 290 290 290 289 286 284 282 279 278 277 276 276 275 276 277 277 279 280 281 284 287 289 295
297 297 300 306 306 294 293 294 294 294 296 297 296 296 296 296 294 292 291 291 291 289 290 288 287 285 283 281 278 277 276 274 274 275 275 276 277 278 278 279 281 281 284 288
295 298 298 298 298 296 295 294 293 293 294 295 296 295 295 294 293 290 291 291 290 289 288 287 285 284 281 279 277 276 275 274 273 273 273 273 274 275 277 278 278 279 281 286
296 297 295 294 294 294 294 294 294 294 293 293 294 294 294 294 291 291 291 290 289 289 287 285 284 282 280 278 277 275 274 273 271 271 271 272 273 273 278 278 277 278 280 281
295 295 296 298 294 293 296 295 294 294 294 293 293 294 294 291 290 291 290 289 289 287 284 283 282 280 278 276 276 274 273 271 271 270 271 271 272 273 277 278 277 278 280 282
295 296 296 298 295 299 296 291 291 293 293 293 292 292 291 290 291 290 290 288 286 284 282 280 279 277 275 274 274 273 271 271 270 270 270 270 272 273 273 275 278 278 279 281
296 295 297 297 297 297 295 294 290 289 291 291 290 290 290 290 290 289 289 285 283 282 280 278 276 275 273 273 272 270 270 270 270 270 270 270 270 271 272 274 277 278 279 282
293 294 295 296 296 299 292 290 290 289 290 291 291 290 290 290 290 290 287 283 281 279 277 275 274 272 272 271 270 269 269 269 269 269 269 269 269 270 271 272 274 279 279 283
294 294 294 296 295 295 294 290 290 290 291 290 290 290 290 289 289 287 284 281 279 277 275 274 272 271 270 269 268 268 268 268 267 268 267 267 268 269 270 271 273 280 280 283
294 294 295 295 296 295 294 289 289 292 291 291 291 290 288 286 284 283 281 279 277 275 273 272 270 269 268 268 267 267 266 266 266 265 265 266 268 271 272 273 275 283 283 285
295 295 295 295 295 293 292 292 291 291 290 291 289 288 284 282 282 280 278 276 274 272 271 270 268 267 267 266 265 266 265 264 264 263 265 269 272 274 277 277 278 284 286 289
294 294 294 291 292 292 291 291 291 290 290 289 285 282 280 280 279 276 275 273 272 271 269 268 266 266 265 265 264 264 263 262 262 263 267 270 271 273 276 280 282 288 290 293
294 293 293 293 293 293 292 292 292 290 287 283 280 279 278 277 275 274 272 271 270 269 267 266 265 264 263 263 263 262 261 260 261 264 268 269 270 272 274 278 286 287 293 293
292 292 292 294 293 292 293 292 292 290 285 283 281 278 275 274 273 272 270 269 268 266 265 264 263 262 262 261 260 261 260 259 261 264 267 267 269 270 271 274 276 287 292 292
Wind_Speed
4 6 10 4 6 10 10 11 13 14 7 7 12 15 7 13 9 6 7 9 12 15 19 24 25 27 29 31 31 29 33 33 36 33 27 28 29 33 33 30 29 35 38 39
12 13 4 6 6 6 11 15 15 7 3 11 15 17 17 13 7 5 5 9 13 15 18 24 27 29 31 33 35 32 32 35 34 32 32 27 28 34 34 28 25 33 37 37
10 13 3 5 8 12 13 14 9 10 13 17 14 18 15 14 10 5 4 8 12 17 20 20 26 33 33 33 32 35 34 36 37 35 34 32 29 30 30 29 31 30 37 37
10 4 4 8 12 4 12 5 9 14 13 11 17 8 13 18 14 4 5 11 16 21 21 19 28 34 35 38 37 36 35 35 36 36 32 32 30 25 28 34 36 30 32 39
3 5 8 11 7 3 6 9 10 16 18 21 13 7 10 18 15 2 7 13 18 21 20 23 29 35 37 39 39 42 38 39 38 35 34 34 32 28 27 29 34 30 30 34
15 0 3 5 2 3 9 10 18 20 12 6 2 3 7 4 2 3 10 16 22 21 22 25 34 36 38 42 43 41 39 42 37 38 41 36 35 33 31 28 31 26 27 29
6 9 2 3 6 6 7 9 7 4 5 9 10 8 11 10 5 5 12 19 20 19 21 23 25 33 40 44 45 43 40 43 43 41 42 40 38 35 33 33 26 27 23 31
7 9 8 3 3 5 1 3 4 7 6 13 14 9 5 13 8 2 13 19 19 21 21 24 29 34 38 41 41 41 42 39 40 39 38 38 40 33 29 33 26 28 18 23
4 6 3 3 1 2 6 5 4 5 4 6 8 10 6 11 4 7 17 19 19 21 23 25 31 35 39 39 38 40 45 44 44 45 45 43 42 34 31 35 31 26 23 21
1 9 5 4 0 1 4 5 2 4 5 7 8 19 12 6 8 13 20 20 20 23 25 23 24 35 36 41 41 42 40 41 42 41 39 39 38 40 41 33 32 27 23 22
1 5 4 3 9 12 5 5 6 4 4 5 9 6 5 4 5 15 19 19 22 23 25 23 27 36 39 41 41 41 40 40 40 38 38 37 35 38 39 40 34 29 26 19
6 4 9 13 3 6 7 11 14 6 7 8 9 15 14 5 4 13 18 20 22 22 23 23 29 33 35 37 39 39 38 38 37 38 39 39 37 35 34 34 38 30 29 21
8 6 4 4 3 3 6 11 17 15 5 15 10 9 8 11 19 18 19 20 20 22 24 23 24 26 33 38 39 38 39 38 37 40 39 38 38 35 34 35 36 31 31 25
7 7 12 12 13 1 6 13 17 17 12 16 21 29 20 21 17 20 20 20 21 22 23 24 23 23 33 36 39 39 39 41 38 38 39 38 36 37 38 36 35 37 35 32
5 10 14 18 19 16 16 16 18 22 24 21 28 21 21 19 19 17 20 21 23 23 23 23 24 23 33 38 41 41 40 38 41 38 38 38 42 40 41 37 35 35 35 31
6 5 5 6 13 15 19 19 21 23 24 26 25 29 21 18 12 17 20 22 21 21 23 24 26 26 33 36 41 44 44 42 40 40 39 37 40 43 35 35 36 34 34 35
8 6 5 8 4 9 14 21 25 26 21 20 20 24 18 14 13 16 20 19 19 21 23 23 24 26 34 39 42 43 45 46 43 40 38 38 37 39 36 33 34 33 31 30
10 8 5 4 4 8 3 2 2 12 17 18 18 18 15 12 13 14 19 14 19 21 23 22 25 34 40 43 42 44 45 43 41 39 38 36 34 36 36 36 32 32 28 30
8 9 4 4 8 13 15 9 7 9 9 17 17 13 9 13 14 14 9 13 17 21 23 25 31 34 40 40 43 44 45 41 40 38 36 38 37 37 35 34 35 31 28 29
12 12 9 5 5 7 3 7 8 4 11 12 10 8 9 8 10 11 15 14 16 23 27 30 36 39 38 40 42 41 43 40 38 40 42 41 39 37 35 34 35 31 28 26
10 6 16 11 7 9 10 13 6 3 2 12 6 7 7 7 8 16 16 17 21 24 30 35 35 33 37 41 41 41 42 38 44 45 44 42 39 36 34 33 33 28 25 23
14 11 7 9 8 14 12 13 8 3 9 7 5 5 6 8 9 12 13 15 18 25 31 32 31 35 42 40 38 39 39 47 46 46 44 41 40 35 30 27 29 23 22 22
9 9 7 12 9 2 16 7 14 5 4 2 4 3 2 6 8 11 12 13 15 22 27 28 29 37 38 38 38 39 46 47 50 46 42 40 37 33 29 24 23 20 19 20
10 13 5 5 9 13 9 13 6 4 5 3 4 4 3 5 6 8 10 11 14 22 25 28 30 30 36 40 40 38 44 48 48 43 40 37 37 36 32 22 20 17 15 11
8 15 13 14 12 6 8 12 10 9 6 6 5 3 3 3 5 7 9 11 16 20 23 26 27 28 34 39 40 40 43 47 46 41 36 36 34 34 33 30 18 18 17 17
9 9 14 8 11 10 6 6 5 8 10 9 7 6 4 2 4 6 8 12 15 19 23 24 27 30 34 37 38 40 43 44 42 39 36 36 33 33 31 30 30 20 22 23
Wind_Direction
340 298 299 322 326 303 299 290 293 290 112 306 304 300 335 123 136 120 51 24 18 17 0 356 353 351 351 349 339 335 337 330 327 323 319 321 319 319 307 308 306 262 247 239
298 290 19 312 301 292 293 291 298 313 191 310 308 297 134 156 140 120 38 22 14 1 353 351 353 353 348 345 337 328 325 329 318 314 312 310 307 310 310 298 303 294 254 238
284 293 325 287 295 295 288 302 316 298 305 282 286 283 157 173 153 137 46 5 3 356 353 354 355 348 340 337 331 324 319 319 315 306 305 308 300 304 310 319 306 319 301 244
283 2 300 284 278 300 297 12 316 304 310 302 317 290 169 181 179 130 23 8 357 352 357 355 348 343 337 328 324 316 310 311 308 301 297 298 300 295 296 304 311 303 294 302
295 294 289 281 300 331 297 342 303 290 285 298 277 242 258 166 200 103 10 3 358 354 350 350 343 334 330 322 319 313 308 310 303 299 291 293 292 293 291 294 300 308 302 301
268 296 256 288 265 266 303 287 299 276 268 263 142 260 237 183 181 356 358 358 354 349 345 339 335 326 322 321 317 311 310 306 306 302 298 290 289 292 291 286 292 308 311 291
195 216 176 247 259 210 261 307 313 298 232 276 152 317 248 142 128 36 356 356 348 344 338 335 330 328 324 320 321 317 317 316 308 307 297 294 291 283 287 283 283 295 303 311
275 267 186 141 269 342 316 291 263 288 295 294 313 254 294 135 140 25 355 355 347 339 334 331 328 326 322 323 321 322 316 318 322 315 307 296 292 280 284 280 271 280 283 295
252 248 124 32 341 286 139 215 14 288 261 278 237 239 142 159 214 354 344 349 342 333 330 328 325 324 324 323 323 325 321 314 309 308 309 309 315 293 281 280 274 269 277 279
360 284 173 116 208 155 264 123 180 201 270 269 268 299 273 187 340 340 345 340 335 329 325 327 327 324 328 329 327 325 321 314 311 310 308 304 306 307 311 280 272 264 273 273
169 236 149 149 209 225 186 217 222 285 241 263 299 283 114 5 358 345 333 336 331 330 330 329 326 331 330 329 326 324 322 317 313 310 309 308 306 304 304 308 279 265 269 259
187 248 253 246 46 285 273 244 215 217 216 226 266 275 281 224 355 344 333 332 330 329 327 321 330 328 328 327 327 323 320 316 313 309 310 305 304 303 299 299 300 300 260 250
174 206 250 236 244 181 216 222 234 234 308 245 251 256 155 211 328 340 329 326 325 328 319 327 325 328 327 330 327 323 320 318 313 311 305 304 302 302 301 296 297 306 312 278
188 228 229 255 295 101 215 215 216 213 240 259 240 270 274 291 313 324 320 322 322 321 325 324 322 325 326 329 327 322 319 319 314 310 309 302 302 303 297 295 293 292 296 301
218 252 241 262 273 278 259 255 222 221 236 244 269 262 278 298 315 320 314 320 323 318 327 325 322 322 327 327 326 322 321 318 317 310 307 304 298 299 292 289 287 284 284 290
205 251 291 273 267 274 271 257 247 246 242 246 258 271 275 284 316 309 316 318 314 322 325 323 319 322 324 323 323 322 318 319 317 309 302 302 302 301 282 287 285 281 278 273
198 203 197 263 9 318 280 246 238 240 232 235 246 256 279 291 309 311 312 309 314 322 321 319 316 316 318 319 321 319 317 316 314 307 304 303 299 297 292 282 280 277 275 271
193 183 165 267 17 256 315 323 239 248 225 225 245 261 275 299 301 314 295 325 325 322 318 318 317 317 319 321 320 321 316 314 312 309 306 304 302 299 302 298 277 274 271 267
212 178 196 230 205 302 297 221 212 204 246 232 241 258 271 291 312 287 11 345 318 317 318 318 317 318 319 319 323 323 317 314 315 310 310 307 302 297 295 288 286 271 267 259
201 205 207 162 223 243 93 133 102 133 273 218 213 210 267 305 295 305 344 332 322 317 320 324 322 321 321 324 323 324 319 318 316 317 311 308 304 298 291 286 284 266 257 264
190 193 221 215 231 269 245 154 139 166 259 154 185 241 254 247 280 313 324 326 324 322 326 325 327 325 323 324 325 325 321 320 320 318 315 310 304 297 288 283 277 258 254 256
178 181 198 207 219 254 183 142 202 187 155 202 230 239 235 272 302 308 317 321 325 327 327 330 327 326 324 326 328 325 324 323 323 322 317 312 307 298 287 279 277 255 241 244
203 199 184 200 206 129 169 196 210 144 225 239 210 166 224 280 296 308 316 320 324 323 324 328 328 323 323 327 330 328 327 327 327 324 321 321 322 318 310 274 271 253 243 243
228 215 231 184 224 240 213 238 251 208 231 170 161 165 182 269 302 304 313 324 325 326 330 332 330 326 322 327 330 331 330 331 328 327 328 333 332 328 325 293 269 256 247 236
184 174 210 246 253 251 238 231 228 187 168 156 145 168 206 265 297 309 318 324 322 324 332 333 328 324 321 326 329 334 336 335 331 332 336 341 340 338 336 337 290 285 254 240
189 181 200 218 216 219 216 214 196 167 189 187 179 178 189 218 296 317 314 320 321 329 334 332 329 327 326 329 331 336 341 339 335 336 342 345 345 345 346 345 344 315 272 259